Regional Weather Roundup
Issued by NWS

Home | Current Version | Previous Version | Text Only | Print | Product List | Glossary Off
Versions: 1 2 3 4 5 6 7 8 9 10 11 12 13 14 15 16 17 18 19 20 21 22 23 24 25 26 27 28 29 30 31 32 33 34 35 36 37 38 39 40 41 42 43 44 45 46 47 48 49 50

000
ASUS43 KFSD 190502
RWRSD

WEATHER ROUNDUP FOR SOUTH DAKOTA
NATIONAL WEATHER SERVICE SIOUX FALLS SD
1200 AM CDT SAT AUG 19 2017

NOTE: "FAIR" INDICATES FEW OR NO CLOUDS BELOW 12,000 FEET WITH NO
SIGNIFICANT WEATHER AND/OR OBSTRUCTIONS TO VISIBILITY.


SDZ001>005-009-010-012>017-190600-
NORTHWEST AND NORTH CENTRAL SOUTH DAKOTA

CITY           SKY/WX    TMP DP  RH WIND       PRES   REMARKS
BUFFALO          N/A     68  48  48 SE17      29.87F
FAITH            N/A     65  52  62 S15       29.95S
MOBRIDGE       FAIR      62  57  83 SE3       29.91S
$$

SDZ012>016-024>037-041>051-057-063-072>074-190600-
SOUTHWEST AND SOUTH CENTRAL SOUTH DAKOTA

CITY           SKY/WX    TMP DP  RH WIND       PRES   REMARKS
RAPID CTY ARPT FAIR      66  47  50 S7        29.99S
PIERRE         FAIR      63  55  75 SE8       29.95R
CUSTER         FAIR      61  40  45 MISG      30.14S
ELLSWORTH AFB  FAIR      67  48  50 S7        29.98S
PHILIP         FAIR      67  52  58 E3        29.96S
PINE RIDGE     FAIR      67  52  58 NE3       30.01S
SPEARFISH      FAIR      73  43  33 S14G20    29.98F
WINNER         FAIR      64  59  83 SE10      29.99S
$$

SDZ004>011-016>023-039-040-190600-
NORTHEAST SOUTH DAKOTA

CITY           SKY/WX    TMP DP  RH WIND       PRES   REMARKS
ABERDEEN       FAIR      58  57  97 SE3       29.93F
WATERTOWN      FAIR      56  56 100 S5        29.97R
BROOKINGS      FAIR      60  59  96 N3        29.97S
SISSETON         N/A     59  57  93 SW5       29.92S
$$

SDZ017-020-022-023-036>040-048>070-190600-
SOUTHEAST SOUTH DAKOTA

CITY           SKY/WX    TMP DP  RH WIND       PRES   REMARKS
SIOUX FALLS    FAIR      62  60  93 W5        29.97R
HURON          FAIR      62  59  90 E3        29.94F
CHAMBERLAIN    FAIR      61  59  92 CALM      29.98S
MITCHELL       FAIR      59  57  93 E6        29.96F
$$

ABBREVIATIONS USED IN REMARKS
   TC - TEMPERATURE IN CELSIUS
  WCI - WIND CHILL INDEX
   HX - HEAT INDEX
  VSB - VISIBILITY





USA.gov is the U.S. government's official web portal to all federal, state and local government web resources and services.